Miscellaneous Local Product
Issued by NWS Hastings, NE

Home | Current Version | Previous Version | Graphics & Text | Print | Product List | Glossary On
Versions: 1 2 3 4 5 6 7 8 9 10 11 12 13 14 15 16 17 18 19 20 21 22 23 24 25 26 27 28 29 30 31 32 33 34 35 36 37 38 39 40 41 42 43 44 45 46 47 48 49 50
000
AXUS43 KGID 200202
MISGRI

GID CWA HOURLY WEATHER ROUNDUP
NATIONAL WEATHER SERVICE HASTINGS NE
800 PM CST SUN NOV 19 2017

NOTE: "FAIR" INDICATES FEW OR NO CLOUDS BELOW 12,000 FEET WITH NO
SIGNIFICANT WEATHER AND/OR OBSTRUCTIONS TO VISIBILITY.

...SOUTH CENTRAL NEBRASKA...

CITY           SKY/WX    TMP DP  RH WIND       PRES   REMARKS
GRAND ISLAND   CLOUDY    42  26  53 S12       29.92F
KEARNEY        CLOUDY    43  24  47 SW10      29.93F
HASTINGS       CLOUDY    44  22  41 S8        29.94F
ORD            CLOUDY    37  24  59 S3        29.88F
YORK           CLOUDY    37  25  60 CALM      29.93F
AURORA         CLOUDY    42  24  48 S9        29.92F
LEXINGTON      CLOUDY    42  27  55 SW8       29.91F
HOLDREGE       CLOUDY    40  25  53 SW6       29.93S
HEBRON         CLOUDY    47  22  36 S13       29.96F

...NEBRASKA PANHANDLE...

CITY           SKY/WX    TMP DP  RH WIND       PRES   REMARKS
CHADRON        CLOUDY    31  16  54 W7        29.81F WCI  24
ALLIANCE       CLOUDY    34  12  40 W13       29.85F WCI  25
SCOTTSBLUFF    CLOUDY    40  10  29 W10       29.89S WCI  33
SIDNEY         CLOUDY    33  16  49 W8        29.92S WCI  26

...WESTERN AND NORTH CENTRAL NEBRASKA...

CITY           SKY/WX    TMP DP  RH WIND       PRES   REMARKS
VALENTINE      PTCLDY    41  23  48 S10       29.82F
AINSWORTH      CLOUDY    35  24  64 S7        29.83F WCI  29
ONEILL         CLOUDY    40  27  60 SW7       29.85F WCI  35
BROKEN BOW     CLOUDY    35  23  61 CALM      29.88F
IMPERIAL       CLOUDY    36  22  56 CALM      29.91F
NORTH PLATTE   CLOUDY    34  23  64 CALM      29.89F
MCCOOK         CLOUDY    41  25  53 SW8       29.92F

...EASTERN NEBRASKA...

CITY           SKY/WX    TMP DP  RH WIND       PRES   REMARKS
NORFOLK        CLOUDY    42  26  53 S12       29.88F
SO SIOUX CITY  CLOUDY    37  26  64 SE5       29.89F WCI  33
TEKAMAH        CLOUDY    33  25  72 S10       29.92F WCI  25
COLUMBUS       CLOUDY    42  26  53 SW7       29.92F
ALBION         CLOUDY    41  26  54 S5        29.90S
OMAHA EPPLEY   CLOUDY    41  26  55 SE10      29.95F
OFFUTT AFB     CLEAR     37  26  64 SE5       29.95F WCI  33
MILLARD        CLEAR     43  27  54 CALM      29.95F
LINCOLN        CLOUDY    37  24  59 S7        29.96F WCI  32
NEBRASKA CITY  CLEAR     41  27  56 S10       29.97F
BEATRICE       CLOUDY    43  25  49 S9        29.97F
FALLS CITY     CLEAR     45  25  45 S12       30.00F

...NORTHERN KANSAS...

CITY           SKY/WX    TMP DP  RH WIND       PRES   REMARKS
GOODLAND       CLOUDY    46  16  30 S14       29.94F
HILL CITY      CLEAR     46  25  43 SW5       29.97F
NORTON         CLEAR     41  19  42 SW9       29.94S
PHILLIPSBURG   CLEAR     45  21  39 S5        29.96F
SMITH CENTER   CLEAR     34  21  60 S8        29.97F WCI  27
HAYS           CLOUDY    42  24  49 SW5       29.99F
RUSSELL        CLOUDY    43  23  45 S12       29.98F
CONCORDIA      CLOUDY    48  21  34 S17       29.98F
SALINA         CLOUDY    45  24  43 S10       30.02F
TOPEKA         CLEAR     47  25  42 S9        30.06F



USA.gov is the U.S. government's official web portal to all federal, state and local government web resources and services.